Location: Aalen
(48.8330°N, 10.1000°E)
Time: 02:44:04
(UTC+01:00)

Envisat - Pass Details

Date: 05 December 2022
Orbit: 763 x 765 km, 98.2° (Epoch: 28 January)

Event Time Altitude Azimuth Distance (km) Brightness Sun altitude
Rises 04:04:33 0° 19° (NNE) 3,245 6.5 -37.1°
Reaches altitude 10° 04:06:59 10° 26° (NNE) 2,314 5.8 -36.7°
Enters shadow 04:08:22 18° 34° (NE) 1,821 5.3 -36.5°
